FW3088 Weather Reports


time (UTC)temp
C
wind
direction
speed
KPH
gust
KPH
rain 1hr
cm
rain 24hr
cm
rain mn
cm
humidity
%
barometer
mb
20260506014010 16 0 0.0 3.2 0.00 0.00 0.00 82 1014.4
20260506013508 16 259 0.0 4.8 0.00 0.00 0.00 81 1014.4
20260506013034 16 259 0.0 4.8 0.00 0.00 0.00 80 1014.4
20260506012507 17 0 0.0 3.2 0.00 0.00 0.00 79 1014.3
20260506012008 17 0 0.0 6.4 0.00 0.00 0.00 79 1014.4
20260506011530 17 180 1.6 6.4 0.00 0.00 0.00 74 1014.3
20260506011006 17 0 0.0 4.8 0.00 0.00 0.00 77 1014.3
20260506010507 17 243 1.6 3.2 0.00 0.00 0.00 76 1014.3
20260506010029 18 217 1.6 3.2 0.00 0.00 0.00 75 1014.3
20260506005510 18 217 1.6 4.8 0.00 0.00 0.00 73 1014.4
20260506005011 18 213 0.0 8.0 0.00 0.00 0.00 71 1014.3
20260506004528 18 213 3.2 8.0 0.00 0.00 0.00 69 1014.4
20260506004016 18 0 0.0 9.7 0.00 0.00 0.00 71 1014.5
20260506003517 18 189 1.6 9.7 0.00 0.00 0.00 70 1014.3
20260506003026 18 101 1.6 6.4 0.00 0.00 0.00 71 1014.4
20260506002507 18 0 0.0 6.4 0.00 0.00 0.00 70 1014.4
20260506002009 18 178 1.6 6.4 0.00 0.00 0.00 70 1014.5
20260506001527 18 115 1.6 9.7 0.00 0.00 0.00 70 1014.5
20260506001008 18 87 1.6 9.7 0.00 0.00 0.00 70 1014.4
20260506000510 18 112 3.2 9.7 0.00 0.00 0.00 71 1014.2
20260506000030 18 113 1.6 6.4 0.00 0.00 0.00 70 1014.6
20260505235511 18 0 1.6 11.3 0.00 0.00 0.00 71 1014.6
20260505235010 18 109 3.2 11.3 0.00 0.00 0.00 70 1014.4
20260505234530 19 109 1.6 9.7 0.00 0.00 0.00 71 1014.6
20260505234011 18 152 3.2 9.7 0.00 0.00 0.00 71 1014.7
20260505233514 18 138 3.2 9.7 0.00 0.00 0.00 70 1014.7
20260505233028 18 117 3.2 12.9 0.00 0.00 0.00 69 1014.9
20260505232512 18 180 1.6 14.5 0.00 0.00 0.00 71 1014.7
20260505232010 18 116 4.8 14.5 0.00 0.00 0.00 71 1014.8
20260505231545 18 86 3.2 11.3 0.00 0.00 0.00 70 1014.9
20260505231013 18 329 3.2 14.5 0.00 0.00 0.00 69 1015.0
20260505230511 18 177 1.6 14.5 0.00 0.00 0.00 72 1015.0
20260505230030 17 130 1.6 14.5 0.00 0.00 0.00 74 1015.0
20260505225510 17 222 6.4 14.5 0.00 0.00 0.00 72 1015.1
20260505225013 18 159 3.2 16.1 0.00 0.00 0.00 72 1015.1
20260505224528 18 182 3.2 16.1 0.00 0.00 0.00 73 1015.1
20260505224009 17 171 4.8 16.1 0.00 0.00 0.00 73 1015.1
20260505223510 18 147 4.8 16.1 0.00 0.00 0.00 70 1015.2
20260505223029 18 145 1.6 12.9 0.00 0.00 0.00 72 1015.3
20260505222517 18 185 1.6 12.9 0.00 0.00 0.00 70 1015.3
20260505222011 17 109 3.2 11.3 0.00 0.00 0.00 71 1015.3
20260505221530 17 193 1.6 17.7 0.00 0.00 0.00 72 1015.4
20260505221012 17 159 3.2 19.3 0.00 0.00 0.00 74 1015.5
20260505220515 16 130 6.4 19.3 0.00 0.00 0.00 74 1015.5
20260505220031 16 86 4.8 14.5 0.00 0.00 0.00 74 1015.5
20260505215511 16 163 1.6 12.9 0.00 0.00 0.00 75 1015.6
20260505215008 16 195 3.2 12.9 0.00 0.00 0.00 76 1015.7
20260505214535 16 128 3.2 9.7 0.00 0.00 0.00 77 1015.7
20260505214013 16 125 4.8 12.9 0.00 0.00 0.00 77 1015.7
20260505213512 15 0 4.8 12.9 0.00 0.00 0.00 76 1015.7
20260505213036 15 113 4.8 12.9 0.00 0.00 0.00 76 1015.8
20260505212509 16 74 3.2 11.3 0.00 0.00 0.00 75 1015.8
20260505212011 16 324 3.2 11.3 0.00 0.00 0.00 75 1015.7
20260505211530 16 131 1.6 9.7 0.00 0.00 0.00 76 1015.7
20260505211009 16 126 3.2 9.7 0.00 0.00 0.00 75 1015.8
20260505210511 16 0 1.6 9.7 0.00 0.00 0.00 76 1015.8
20260505210028 16 50 1.6 9.7 0.00 0.00 0.00 76 1016.0
20260505205511 16 46 0.0 8.0 0.00 0.00 0.00 76 1015.9
20260505205012 16 46 1.6 11.3 0.00 0.00 0.00 75 1015.9
20260505204529 16 144 3.2 11.3 0.00 0.00 0.00 75 1015.9
20260505204010 16 24 3.2 11.3 0.00 0.00 0.00 75 1015.9
20260505203508 15 287 1.6 11.3 0.00 0.00 0.00 75 1016.0
20260505203043 15 173 3.2 9.7 0.00 0.00 0.00 75 1016.0
20260505202511 15 119 1.6 9.7 0.00 0.00 0.00 76 1016.0
20260505202010 15 120 3.2 11.3 0.00 0.00 0.00 75 1016.0
20260505201536 15 305 3.2 11.3 0.00 0.00 0.00 75 1016.0
20260505201014 15 139 1.6 9.7 0.00 0.00 0.00 76 1016.1
20260505200508 15 176 4.8 9.7 0.00 0.00 0.00 75 1016.1
20260505200030 15 49 1.6 9.7 0.00 0.00 0.00 75 1016.1
20260505195511 15 171 1.6 9.7 0.00 0.00 0.00 75 1016.1
20260505195011 15 29 0.0 8.0 0.00 0.00 0.00 76 1016.2
20260505194527 15 44 1.6 8.0 0.00 0.00 0.00 76 1016.2
20260505194010 15 124 1.6 6.4 0.00 0.00 0.00 78 1016.2
20260505193510 15 57 1.6 4.8 0.00 0.00 0.00 76 1016.2
20260505193032 15 147 0.0 6.4 0.00 0.00 0.00 76 1016.2
20260505192512 15 26 1.6 9.7 0.00 0.00 0.00 76 1016.3
20260505192011 15 0 1.6 9.7 0.00 0.00 0.00 75 1016.2
20260505191526 15 173 0.0 9.7 0.00 0.00 0.00 76 1016.2
20260505191011 14 123 3.2 9.7 0.00 0.00 0.00 75 1016.2
20260505190510 15 341 0.0 8.0 0.00 0.00 0.00 76 1016.0
20260505190030 14 110 3.2 6.4 0.00 0.00 0.00 76 1016.1
20260505185514 14 149 1.6 8.0 0.00 0.00 0.00 76 1016.1
20260505185012 15 173 0.0 8.0 0.00 0.00 0.00 76 1016.2
20260505184535 15 157 1.6 8.0 0.00 0.00 0.00 75 1016.0
20260505184012 15 161 0.0 8.0 0.00 0.00 0.00 75 1016.2
20260505183512 14 202 1.6 6.4 0.00 0.00 0.00 76 1016.1
20260505183027 14 173 0.0 8.0 0.00 0.00 0.00 76 1016.1
20260505182510 14 178 1.6 8.0 0.00 0.00 0.00 76 1016.1
20260505182012 14 135 0.0 4.8 0.00 0.00 0.00 77 1016.1
20260505181535 13 58 1.6 4.8 0.00 0.00 0.00 76 1016.1
20260505181011 14 0 0.0 3.2 0.00 0.00 0.00 76 1016.0
20260505180511 13 0 0.0 4.8 0.00 0.00 0.00 77 1016.1
20260505180026 13 181 1.6 6.4 0.00 0.00 0.00 77 1016.1
20260505175509 13 0 0.0 6.4 0.00 0.00 0.00 77 1016.0
20260505175008 13 0 3.2 6.4 0.00 0.00 0.00 78 1016.1
20260505174538 13 0 0.0 4.8 0.00 0.00 0.00 78 1016.0
20260505174012 13 182 1.6 4.8 0.00 0.00 0.00 77 1016.0
20260505173509 13 0 0.0 3.2 0.00 0.00 0.00 78 1016.0
20260505173030 13 0 0.0 4.8 0.00 0.00 0.00 79 1016.0
20260505172511 13 0 1.6 4.8 0.00 0.00 0.00 78 1016.0
20260505172012 13 178 0.0 3.2 0.00 0.00 0.00 79 1016.0
20260505171528 13 178 0.0 6.4 0.00 0.00 0.00 79 1016.0
20260505171011 13 178 3.2 6.4 0.00 0.00 0.00 79 1016.0
20260505170511 13 213 1.6 6.4 0.00 0.00 0.00 81 1016.1
20260505170028 13 161 0.0 1.6 0.00 0.00 0.00 81 1015.9
20260505165509 13 0 0.0 3.2 0.00 0.00 0.00 81 1016.0
20260505165012 13 161 0.0 3.2 0.00 0.00 0.00 80 1015.9
20260505164527 13 160 0.0 6.4 0.00 0.00 0.00 81 1016.1
20260505164012 13 159 0.0 6.4 0.00 0.00 0.00 81 1016.0
20260505163509 13 162 0.0 4.8 0.00 0.00 0.00 81 1016.0
20260505163034 13 142 0.0 3.2 0.00 0.00 0.00 82 1016.0
20260505162510 12 142 0.0 3.2 0.00 0.00 0.00 82 1015.9
20260505162009 12 0 0.0 4.8 0.00 0.00 0.00 82 1016.0
20260505161528 12 0 1.6 4.8 0.00 0.00 0.00 82 1016.0
20260505161009 12 153 0.0 3.2 0.00 0.00 0.00 83 1016.0
20260505160509 12 153 0.0 3.2 0.00 0.00 0.00 83 1015.9
20260505153027 12 0 0.0 3.2 0.00 0.00 0.00 85 1016.0
20260505152509 12 0 0.0 1.6 0.00 0.00 0.00 86 1015.9
20260505152015 12 0 0.0 3.2 0.00 0.00 0.00 86 1016.0
20260505151527 12 0 0.0 4.8 0.00 0.00 0.00 86 1015.9
20260505151010 12 302 0.0 4.8 0.00 0.00 0.00 86 1015.8
20260505150511 12 0 0.0 3.2 0.00 0.00 0.00 87 1015.9
20260505140508 11 154 0.0 1.6 0.00 0.00 0.00 89 1015.6
20260505125008 11 0 0.0 0.0 0.00 0.00 0.00 91 1015.2
20260505124528 11 0 0.0 0.0 0.00 0.00 0.00 91 1015.1
20260505124008 11 0 0.0 0.0 0.00 0.00 0.00 91 1015.0
20260505123511 11 0 0.0 0.0 0.00 0.00 0.00 91 1015.1
20260505123027 11 0 0.0 0.0 0.00 0.00 0.00 91 1015.2
20260505122510 11 0 0.0 0.0 0.00 0.00 0.00 91 1015.0
20260505122011 11 0 0.0 0.0 0.00 0.00 0.00 91 1015.0
20260505121528 11 0 0.0 0.0 0.00 0.00 0.00 90 1014.9
20260505121011 11 0 0.0 0.0 0.00 0.00 0.00 90 1014.8
20260505120514 11 0 0.0 0.0 0.00 0.00 0.00 90 1014.7
20260505120030 11 0 0.0 3.2 0.00 0.00 0.00 90 1014.8
20260505115509 11 0 0.0 3.2 0.00 0.00 0.00 90 1014.8
20260505115010 11 154 0.0 3.2 0.00 0.00 0.00 90 1014.9
20260505114527 11 154 0.0 4.8 0.00 0.00 0.00 90 1014.9
20260505114016 11 155 1.6 4.8 0.00 0.00 0.00 90 1014.9
20260505113510 11 0 0.0 1.6 0.00 0.00 0.00 90 1014.9
20260505113028 11 0 0.0 1.6 0.00 0.00 0.00 90 1014.9
20260505112512 11 0 0.0 1.6 0.00 0.00 0.00 90 1014.9
20260505112011 11 155 0.0 1.6 0.00 0.00 0.00 90 1014.9
20260505111529 11 0 0.0 1.6 0.00 0.00 0.00 90 1015.0
20260505111010 11 0 0.0 1.6 0.00 0.00 0.00 90 1015.0
20260505110509 11 0 0.0 1.6 0.00 0.00 0.00 91 1014.9
20260505102007 11 0 0.0 3.2 0.00 0.00 0.00 91 1014.7
20260505101532 11 0 0.0 1.6 0.00 0.00 0.00 91 1014.6
20260505101007 11 0 0.0 3.2 0.00 0.00 0.00 91 1014.7
20260505100510 11 0 0.0 3.2 0.00 0.00 0.00 91 1014.7
20260505100028 11 142 0.0 3.2 0.00 0.00 0.00 91 1014.8
20260505095510 11 0 0.0 3.2 0.00 0.00 0.00 91 1014.6
20260505095012 11 142 0.0 1.6 0.00 0.00 0.00 91 1014.7
20260505094528 11 0 0.0 3.2 0.00 0.00 0.00 91 1014.5
20260505094010 11 0 0.0 4.8 0.00 0.00 0.00 91 1014.6
20260505093511 11 142 0.0 4.8 0.00 0.00 0.00 90 1014.7
20260505093032 11 142 0.0 4.8 0.00 0.00 0.00 90 1014.7
20260505092511 11 0 0.0 3.2 0.00 0.00 0.00 90 1014.6
20260505092011 11 0 0.0 3.2 0.00 0.00 0.00 90 1014.7
20260505091529 11 0 0.0 4.8 0.00 0.00 0.00 90 1014.6
20260505091008 11 143 1.6 4.8 0.00 0.00 0.00 90 1014.4
20260505090508 11 143 0.0 1.6 0.00 0.00 0.00 90 1014.4
20260505090038 11 0 0.0 1.6 0.00 0.00 0.00 90 1014.4
20260505085510 11 0 0.0 3.2 0.00 0.00 0.00 90 1014.3
20260505085011 11 142 0.0 3.2 0.00 0.00 0.00 90 1014.4
20260505084530 11 146 0.0 6.4 0.00 0.00 0.00 90 1014.4
20260505084010 11 0 0.0 6.4 0.00 0.00 0.00 89 1014.4
20260505083510 11 107 0.0 4.8 0.00 0.00 0.00 89 1014.3
20260505083028 11 107 1.6 4.8 0.00 0.00 0.00 89 1014.5
20260505082511 11 200 0.0 6.4 0.00 0.00 0.00 89 1014.4
20260505082010 11 205 1.6 6.4 0.00 0.00 0.00 88 1014.5
20260505081535 11 0 1.6 3.2 0.00 0.00 0.00 88 1014.5
20260505081007 11 0 0.0 3.2 0.00 0.00 0.00 88 1014.4
20260505080510 12 0 0.0 4.8 0.00 0.00 0.00 87 1014.7
20260505080030 12 0 0.0 4.8 0.00 0.00 0.00 87 1014.7
20260505075508 12 0 1.6 4.8 0.00 0.00 0.00 87 1014.7
20260505075008 12 0 0.0 3.2 0.00 0.00 0.00 86 1014.7
20260505074530 12 121 0.0 3.2 0.00 0.00 0.00 86 1014.6
20260505074009 12 0 0.0 3.2 0.00 0.00 0.00 86 1014.6
20260505073509 12 0 0.0 3.2 0.00 0.00 0.00 86 1014.7
20260505073037 12 0 0.0 3.2 0.00 0.00 0.00 85 1014.6
20260505072511 12 111 0.0 3.2 0.00 0.00 0.00 85 1014.6
20260505072010 12 0 0.0 8.0 0.00 0.00 0.00 85 1014.7
20260505071526 12 105 1.6 8.0 0.00 0.00 0.00 85 1014.7
20260505071010 12 134 1.6 6.4 0.00 0.00 0.00 85 1014.6
20260505070510 12 153 1.6 6.4 0.00 0.00 0.00 85 1014.4
20260505070027 12 147 1.6 6.4 0.00 0.00 0.00 84 1014.4
20260505065510 12 123 3.2 6.4 0.00 0.00 0.00 84 1014.3
20260505065007 12 117 1.6 4.8 0.00 0.00 0.00 84 1014.4
20260505064527 12 11 1.6 8.0 0.00 0.00 0.00 84 1014.3
20260505064008 12 0 1.6 8.0 0.00 0.00 0.00 84 1014.3
20260505063508 12 171 3.2 6.4 0.00 0.00 0.00 83 1014.3
20260505063030 12 167 1.6 6.4 0.00 0.00 0.00 83 1014.2
20260505062514 12 103 1.6 9.7 0.00 0.00 0.00 83 1014.2
20260505062012 12 157 3.2 9.7 0.00 0.00 0.00 83 1014.3
20260505061530 12 104 1.6 6.4 0.00 0.00 0.00 83 1014.2
20260505061011 12 168 0.0 6.4 0.00 0.00 0.00 83 1014.1
20260505060513 12 150 1.6 6.4 0.00 0.00 0.00 83 1014.1
20260505060032 12 140 0.0 8.0 0.00 0.00 0.00 83 1014.2
20260505055513 12 237 0.0 8.0 0.00 0.00 0.00 83 1014.2
20260505055014 12 148 1.6 8.0 0.00 0.00 0.00 82 1014.2
20260505054536 12 181 1.6 8.0 0.00 0.00 0.00 83 1014.1
20260505054019 12 195 0.0 6.4 0.00 0.00 0.00 83 1014.1
20260505053514 12 128 1.6 6.4 0.00 0.00 0.00 83 1014.1
20260505053038 12 180 1.6 9.7 0.00 0.00 0.00 83 1013.9
20260505052509 12 160 3.2 9.7 0.00 0.00 0.00 83 1014.1
20260505052011 12 107 1.6 6.4 0.00 0.00 0.00 83 1014.0
20260505051528 12 164 1.6 6.4 0.00 0.00 0.00 83 1013.9
20260505051009 12 0 0.0 6.4 0.00 0.00 0.00 83 1014.0
20260505050510 12 144 1.6 8.0 0.00 0.00 0.00 83 1014.0
20260505041528 12 93 0.0 6.4 0.00 0.00 0.00 85 1013.6
20260505041009 12 103 0.0 6.4 0.00 0.00 0.00 84 1013.6
20260505040508 12 103 0.0 6.4 0.00 0.00 0.00 84 1013.4
20260505040028 12 0 0.0 3.2 0.00 0.00 0.00 83 1013.3
20260505035511 13 0 0.0 3.2 0.00 0.00 0.00 82 1013.4
20260505035008 13 0 0.0 3.2 0.00 0.00 0.00 81 1013.3
20260505034529 13 153 0.0 4.8 0.00 0.00 0.00 81 1013.3
20260505034010 13 0 1.6 4.8 0.00 0.00 0.00 81 1013.2
20260505033511 13 137 1.6 4.8 0.00 0.00 0.00 80 1013.2
20260505033037 13 114 0.0 4.8 0.00 0.00 0.00 80 1013.0
20260505032510 13 113 1.6 4.8 0.00 0.00 0.00 80 1013.1
20260505032013 14 0 0.0 4.8 0.00 0.00 0.00 80 1013.0
20260505031529 14 111 1.6 6.4 0.00 0.00 0.00 79 1012.9
20260505031010 14 0 3.2 8.0 0.00 0.00 0.00 79 1012.8
20260505030509 14 176 0.0 9.7 0.00 0.00 0.00 79 1012.6
20260505030029 15 182 1.6 11.3 0.00 0.00 0.00 78 1012.5
20260505025508 15 98 3.2 11.3 0.00 0.00 0.00 78 1012.4
20260505025006 15 126 4.8 9.7 0.00 0.00 0.00 78 1012.3
20260505024528 15 139 1.6 6.4 0.00 0.00 0.00 77 1012.2
20260505024011 15 0 1.6 9.7 0.00 0.00 0.00 77 1012.2
20260505023510 15 130 3.2 9.7 0.00 0.00 0.00 76 1012.2
20260505023028 15 80 1.6 6.4 0.00 0.00 0.00 76 1012.0
20260505022510 15 0 0.0 8.0 0.00 0.00 0.00 76 1012.1
20260505022010 16 112 1.6 8.0 0.00 0.00 0.00 75 1012.1
20260505021528 16 0 1.6 6.4 0.00 0.00 0.00 75 1012.0
20260505021008 16 0 1.6 8.0 0.00 0.00 0.00 74 1011.9
20260505020510 16 243 3.2 8.0 0.00 0.00 0.00 74 1012.0
20260505020029 16 333 1.6 6.4 0.00 0.00 0.00 74 1011.9
20260505015510 16 82 1.6 6.4 0.00 0.00 0.00 74 1012.0
20260505015010 16 99 1.6 6.4 0.00 0.00 0.00 74 1012.0
20260505014532 16 13 1.6 6.4 0.00 0.00 0.00 73 1012.0